User: anonymous   Login
Location: Acheville
(50.3840°N, 2.8827°E)
Time: 02:52:46
(UTC+00:00)
Language:

Cosmos 2278 Rocket - Orbit

View from above orbital plane
View from above orbital plane
View from above satellite
View from above satellite

Ground track
Ground track

The orbit data is extracted from the following two-line orbital elements,

1 23088U 94023B   22018.41934363  .00000326  00000-0  19420-3 0  9995
2 23088  71.0005   3.7949 0001291  51.2410 308.8828 14.14698694432338
Epoch (UTC): 18 January 2022 10:03:51
Eccentricity: 0.0001291
inclination: 71.0005°
perigee height: 842 km
apogee height: 844 km
right ascension of ascending node: 3.7949°
argument of perigee: 51.2410°
revolutions per day: 14.14698694
mean anomaly at epoch: 308.8828°
orbit number at epoch: 43233

The dashed part of the orbit path shows where the satellite is in the earth's shadow,  

DLR